Orbital Elements at Epoch 2459200.5 (2020-Dec-17.0) TDB
Reference: JPL 33 (heliocentric ecliptic J2000)
Element | Value | Uncertainty (1-sigma) | Units |
e | .1245460140035947 | 9.4053e-09 | |
a | 2.424310077907859 | 6.954e-09 | au |
q | 2.122371920995691 | 2.1254e-08 | au |
i | 6.698712297785918 | 9.988e-07 | deg |
node | 174.800719242335 | 8.5737e-06 | deg |
peri | 59.23514330388443 | 1.1742e-05 | deg |
M | 119.9215783829726 | 9.5568e-06 | deg |
tp | 2458741.222137788468 (2019-Sep-14.72213779) | 3.5961e-05 | TDB |
period | 1378.734608279871 3.77 | 5.9323e-06 1.624e-08 | d yr |
n | .2611089892413313 | 1.1235e-09 | deg/d |
Q | 2.726248234820027 | 7.8201e-09 | au |
|
| | Orbit Determination Parameters
Additional Information
|